Location: Pine Mountain Observatory
(43.7910°N, 120.9377°W)
Time: 08:52:45
(UTC-08:00)

APEX - Visible Passes

Search period start: 26 February 2017 00:00
Search period end: 08 March 2017 00:00
Orbit: 335 x 1207 km, 69.9° (Epoch: 26 February)

Date Brightness Start Highest point End Pass type
(mag) Time Alt. Az. Time Alt. Az. Time Alt. Az.
26 Feb 6.4 06:09:57 10° NNE 06:12:24 14° NE 06:15:08 10° E visible
01 Mar 6.2 06:02:08 10° N 06:06:05 26° NE 06:10:50 10° ESE visible
02 Mar 6.4 05:26:18 10° N 05:29:31 18° NE 05:33:14 10° E visible
03 Mar 6.7 04:50:56 10° NNE 04:52:51 12° NE 04:54:56 10° ENE visible
04 Mar 5.3 05:54:48 10° NNW 05:59:31 46° ENE 06:05:28 10° SE visible
05 Mar 6.0 05:18:37 10° N 05:22:59 31° ENE 05:28:22 10° ESE visible
06 Mar 6.5 04:42:34 10° N 04:46:24 22° NE 04:50:54 10° ESE visible
07 Mar 6.7 04:06:47 10° NNE 04:09:41 15° NE 04:12:57 10° E visible
07 Mar 4.4 05:47:36 10° NNW 05:52:45 81° ENE 05:59:18 10° SSE visible
